Weather Roundup
Issued by NWS Springfield, MO

Home | Current Version | Previous Version | Graphics & Text | Print | Product List | Glossary On
Versions: 1 2 3 4 5 6 7 8 9 10 11 12 13 14 15 16 17 18 19 20 21 22 23 24 25 26 27 28 29 30 31 32 33 34 35 36 37 38 39 40 41 42 43 44 45 46 47 48 49 50
000
NZUS99 KSGF 061907
HRRSGF

HOURLY WEATHER
NATIONAL WEATHER SERVICE SPRINGFIELD MO
100 PM CST SAT FEB 06 2016

......SGF CWA......

CITY           SKY/WX    TMP DP  RH WIND       PRES   REMARKS
SPRINGFIELD    SUNNY     53  29  39 W10G17    30.28F
JOPLIN         SUNNY     52  31  44 SW10      30.30F
WEST PLAINS    SUNNY     53  18  25 SW6       30.29F
ROLLA          SUNNY     52  29  41 W13G23    30.23F
OSAGE BEACH    SUNNY     54  28  37 SW13      30.26F
BRANSON        MOSUNNY   52  23  32 NW7       30.30F

......SURROUNDING SGF CWA......

CITY           SKY/WX    TMP DP  RH WIND       PRES   REMARKS
CHANUTE        SUNNY     48  29  47 W7        30.31F
PARSONS        SUNNY     48  30  49 VRB3      30.32F
COFFEYVILLE    SUNNY     50  29  44 W8        30.33F
EMPORIA        SUNNY     46  27  47 SW10      30.28F
GROVE OK       SUNNY     54  30  40 W8        30.32F
ROGERS AR      SUNNY     51  28  41 SW10      30.30F
SILOAM SPRINGS MOSUNNY   54  27  35 W8        30.32F
HARRISON AR    SUNNY     52  23  32 E7        30.29F
NEAR YELLVILLE SUNNY     54  19  26 S3        30.29F

......KANSAS AND MISSOURI......

CITY           SKY/WX    TMP DP  RH WIND       PRES   REMARKS
KANSAS CTY INT MOSUNNY   45  32  60 SW9       30.24F
DOWNTOWN KC    SUNNY     48  31  51 SW8       30.25F
COLUMBIA       SUNNY     53  27  36 SW12      30.23F
SEDALIA        SUNNY     51  27  39 SW10      30.26F
ST JOSEPH      SUNNY     44  32  62 W7        30.25F
ST LOUIS       SUNNY     55  28  35 SW10      30.25F
SPIRIT OF STL  SUNNY     53  30  41 SW9       30.24F
KIRKSVILLE     SUNNY     46  28  49 SW12      30.21F
WICHITA        MOSUNNY   47  27  45 W7        30.31F
TOPEKA         SUNNY     46  30  53 SW9       30.27F
OLATHE         SUNNY     43  30  60 W7        30.26F

......TENNESSEE......

CITY           SKY/WX    TMP DP  RH WIND       PRES   REMARKS
MEMPHIS        PTSUNNY   52  19  27 CALM      30.34F
NASHVILLE      PTSUNNY   52  16  24 N3        30.32F

......ARKANSAS.......

CITY           SKY/WX    TMP DP  RH WIND       PRES   REMARKS
FAYETTEVILLE   MOSUNNY   52  28  39 VRB3      30.31F
FT SMITH       SUNNY     53  18  25 VRB3      30.33F
LITTLE ROCK    MOSUNNY   55  21  26 VRB5      30.34F

......OKLAHOMA.......

CITY           SKY/WX    TMP DP  RH WIND       PRES   REMARKS
TULSA          MOSUNNY   53  35  50 W7        30.31F
PONCA CITY     MOSUNNY   46  30  53 SW6       30.35F
MCALESTER      MOSUNNY   51  33  50 W6        30.35F
OKLAHOMA CITY  MOSUNNY   49  29  46 NW9       30.37F

......IOWA............

CITY           SKY/WX    TMP DP  RH WIND       PRES   REMARKS
DES MOINES     CLOUDY    33  28  81 SW10      30.20F WCI  25
QUAD CITIES    SUNNY     43  25  49 SW14      30.19F

......ILLINOIS........

CITY           SKY/WX    TMP DP  RH WIND       PRES   REMARKS
QUINCY         SUNNY     46  26  45 SW8       30.21F
CHICAGO        MOSUNNY   36  27  69 W13       30.18F WCI  27



USA.gov is the U.S. government's official web portal to all federal, state and local government web resources and services.